カタログに戻る

BREEZE-M DEB

LostHEO
NORAD 38591·DEBRIS·🇷🇺 Russia

打ち上げ Mar 14, 2008 から Baikonur Cosmodrome

Loading…

次のパス (今後24時間)

TLE

古いSource: Space-Track

元期: Aug 24, 2015, 11:08 UTC

1 38591U 08011AN  15236.46403260 +.00000002 +00000-0 +00000-0 0  9990
2 38591 049.2389 318.5051 6543723 084.0509 341.6535 02.96228203043493

AllMySatでBREEZE-M DEBをリアルタイム追跡

Download on the App Store